Погода в Куликове

Россия / Липецкая область     52°13′40″N   39°34′28″E
темп.,
°C
ветер,
м/с
пор.,
м/с
влажн.,
%
обл.,
%
осадки,
мм/ч
давл.,
гПа
погр.,
м
13 апреля, вт
вт1300:00+13вюв4146375 0.0 1026331
03:00+11вюв4136771 0.0 1026298
06:00+9вюв31066100 0.0 1026211
09:00+15юв484643 0.0 1026390
12:00+20юв6112859 0.0 10241359
15:00+22юв712255 0.0 10232428
18:00+19юв5103481 0.0 1022693
21:00+14вюв4135013 0.0 1023331
14 апреля, ср
ср1400:00+12юв31356100 0.0 1023357
03:00+10вюв3962100 0.0 1022210
06:00+9вюв3965100 0.0 1021176
09:00+14юв4747100 0.0 1021376
12:00+18юв57346 0.0 10191061
15:00+20юв582139 0.0 10172343
18:00+18вюв3735100 0.0 1017252
21:00+13юв125495 0.0 101735
15 апреля, чт
чт1500:00+12вюв2558100 0.0 1016102
03:00+12всв225796 0.0 101620
06:00+12ссв1164100 0.1 101518
09:00+15в2453100 0.1 1015375
12:00+20юв473494 0.0 10142684
15:00+18ююз3542100 0.0 10141416
18:00+15св366170 0.1 1014196
21:00+12в226870 0.1 101424
16 апреля, пт
пт1600:00+12вюв226982 0.0 101436
03:00+10зсз11776 0.0 101410
06:00+9юз24808 0.0 101578
09:00+14зсз116096 0.0 1015357
12:00+16вюв2352100 0.1 10161111
15:00+17ююв3450100 1.0 10151356
18:00+16в346068 1.3 1015176
21:00+11всв258238 1.8 1017120
17 апреля, сб
сб1700:00+10сз1186100 0.0 101713
03:00+10ссв2388100 0.1 101763
06:00+9св1192100 0.1 101714
09:00+14в51161100 0.2 1016705
12:00+17вюв5854100 0.1 10171517
15:00+15ююв4766100 1.7 1018912
18:00+11юз3473100 0.1 1019399
21:00+10з228768 0.9 1020131